Location: ??????????
(54.8537°N, 38.8755°E)
Time: 22:00:30
(UTC+00:00)

Explorer 7 - Visible Passes

Search period start: 18 November 2025 00:00
Search period end: 28 November 2025 00:00
Orbit: 437 x 556 km, 50.3° (Epoch: 18 November)

Date Brightness Start Highest point End Pass type
(mag) Time Alt. Az. Time Alt. Az. Time Alt. Az.
18 Nov 9.1 01:33:16 19° ESE 01:33:16 19° ESE 01:34:52 10° E visible
18 Nov 7.5 03:07:49 22° SW 03:09:50 41° S 03:13:34 10° ESE visible
19 Nov 9.7 01:11:30 13° ESE 01:11:30 13° ESE 01:12:02 10° E visible
19 Nov 7.5 02:46:02 34° SSW 02:47:00 41° S 02:50:42 10° ESE visible
19 Nov 7.9 04:21:43 10° W 04:25:14 34° SSW 04:28:52 10° SE visible
20 Nov 7.4 02:24:13 41° S 02:24:13 41° S 02:27:49 10° ESE visible
20 Nov 7.9 03:58:53 10° W 04:02:22 34° SSW 04:05:59 10° SE visible
21 Nov 8.1 02:02:21 32° SE 02:02:21 32° SE 02:04:55 10° ESE visible
21 Nov 7.8 03:36:53 15° WSW 03:39:29 34° SSW 03:43:04 10° SE visible
22 Nov 8.9 01:40:27 21° ESE 01:40:27 21° ESE 01:41:58 10° ESE visible
22 Nov 7.7 03:14:59 23° WSW 03:16:34 33° SSW 03:20:07 10° SE visible
23 Nov 9.7 01:18:32 13° ESE 01:18:32 13° ESE 01:19:02 10° ESE visible
23 Nov 7.6 02:53:05 31° SW 02:53:38 33° SSW 02:57:09 10° SE visible
24 Nov 7.8 02:31:09 32° S 02:31:09 32° S 02:34:11 10° SE visible
24 Nov 8.9 04:06:28 10° WSW 04:08:35 14° SW 04:10:45 10° S visible
25 Nov 8.5 02:09:14 23° SSE 02:09:14 23° SSE 02:11:10 10° SE visible
25 Nov 8.8 03:43:47 11° WSW 03:45:36 14° SW 03:47:42 10° S visible
26 Nov 9.3 01:47:20 15° SE 01:47:20 15° SE 01:48:08 10° SE visible
26 Nov 8.7 03:21:53 13° SW 03:22:35 14° SW 03:24:39 10° S visible
27 Nov 8.8 03:00:01 14° SSW 03:00:01 14° SSW 03:01:35 10° S visible
